Probability
0 0 0 0 0 0 0 0 0 1 1 2 4 6 6 5 4 4 3 3 3 5 5 4 5 5 5 5 5 4 3 3 3 2 1 1 1 0 0 0 0 0 1 1
0 0 0 0 0 0 0 0 0 1 2 3 4 5 5 4 2 2 3 4 4 4 4 4 4 4 4 3 4 4 3 3 2 1 2 2 1 0 0 0 0 0 0 1
0 0 0 0 0 0 0 0 0 1 1 2 3 3 3 2 1 2 4 4 3 3 3 3 3 2 2 2 2 3 3 1 1 1 3 3 1 0 0 0 0 0 0 0
0 0 0 0 0 0 0 0 0 0 0 1 1 1 1 1 2 4 4 3 1 1 2 2 1 1 1 2 2 3 3 1 0 1 3 3 1 0 0 0 0 0 0 0
0 0 0 0 0 0 0 0 0 0 0 0 0 0 0 0 2 3 3 2 1 1 1 1 0 0 1 2 3 3 3 2 1 1 2 1 0 0 0 0 0 0 0 0
0 0 0 0 0 0 0 0 0 0 0 0 0 0 0 0 1 2 2 3 2 1 0 0 0 0 1 2 2 2 2 2 2 1 1 0 0 0 0 0 0 0 0 0
0 0 0 0 0 0 0 0 0 0 0 0 0 0 0 0 0 1 3 4 2 0 0 0 0 0 0 1 1 1 1 1 1 1 0 0 0 0 0 0 0 0 0 0
0 0 0 0 0 0 0 0 0 0 0 0 0 0 0 0 0 1 4 4 2 0 0 0 0 0 0 0 0 0 0 0 0 0 0 0 0 0 0 0 0 0 0 0
0 0 0 0 0 0 0 0 0 0 0 0 0 0 0 0 0 2 4 4 2 1 0 0 0 0 0 0 0 0 0 0 0 0 0 0 0 0 0 0 0 0 0 0
0 0 0 0 0 0 0 0 0 0 0 0 0 0 0 0 0 1 3 3 2 1 0 0 0 0 0 0 0 0 0 0 0 0 0 0 0 0 0 0 0 0 0 0
0 0 0 0 0 0 0 0 0 0 0 0 0 0 0 0 0 0 1 2 1 0 0 0 0 0 0 0 0 0 0 0 0 0 0 0 0 0 0 0 0 0 0 0
0 0 0 0 0 0 0 0 0 0 0 0 0 0 0 0 0 0 1 1 0 0 0 0 0 0 0 0 0 0 0 0 0 0 0 0 0 0 0 0 0 0 0 0
0 0 0 0 0 0 0 0 0 0 0 0 0 0 0 0 0 0 1 1 0 0 0 0 0 0 0 0 0 0 0 0 0 0 0 0 0 0 0 0 0 0 0 0
0 0 0 0 0 0 0 0 0 0 0 0 0 0 0 0 1 1 2 1 0 0 0 0 0 0 0 0 0 0 0 0 0 0 0 0 0 0 0 0 0 0 0 0
0 0 0 0 0 0 0 0 0 0 0 0 0 0 0 1 2 2 2 1 0 0 0 0 0 0 0 0 0 0 0 0 0 0 0 0 0 0 0 0 0 0 0 0
0 0 0 0 0 0 0 0 0 0 0 0 1 0 1 2 3 2 1 0 0 0 0 0 0 0 0 0 0 0 0 0 0 0 0 0 0 0 0 0 0 0 0 0
0 0 0 0 0 0 0 0 0 0 0 0 0 0 1 2 2 1 0 0 0 0 0 0 0 0 0 0 0 0 0 0 0 0 0 0 0 0 0 0 0 0 0 0
0 0 0 0 0 0 0 0 1 1 0 0 0 0 0 1 1 0 0 0 0 0 0 0 0 0 0 0 0 0 0 0 0 0 0 0 0 0 0 0 0 0 0 0
0 0 0 0 0 0 1 1 1 2 1 0 0 0 0 0 0 0 0 0 0 0 0 0 0 0 0 0 0 0 0 0 0 0 0 0 0 0 0 0 0 0 0 0
0 0 0 0 0 0 0 0 1 1 1 0 0 0 0 0 0 0 0 0 0 0 0 0 0 0 0 0 0 0 0 0 0 0 0 0 0 0 0 0 0 0 0 0
0 0 0 0 0 0 0 0 0 0 0 0 0 0 0 0 0 0 0 0 0 0 0 0 0 0 0 0 0 0 0 0 0 0 0 0 0 0 0 0 0 0 0 0
0 0 0 0 0 0 0 0 0 0 0 0 0 0 0 0 0 0 0 0 0 0 0 0 0 0 0 0 0 0 0 0 0 0 0 0 0 0 0 0 0 0 0 0
0 0 0 0 0 0 0 0 0 0 0 0 0 0 0 0 0 0 0 0 0 0 0 0 0 0 0 0 0 0 0 0 0 0 0 0 0 0 0 0 0 0 0 0
0 0 0 0 0 0 0 0 0 0 0 0 0 0 0 0 0 0 0 0 0 0 0 0 0 0 0 0 0 0 0 0 0 0 0 0 0 0 0 0 0 0 0 0
0 0 0 0 0 0 0 0 0 0 0 0 0 0 0 0 0 0 0 0 0 0 0 0 0 0 0 0 0 0 0 0 0 0 0 0 0 0 0 0 0 0 0 0
0 0 0 0 0 0 0 0 0 0 0 0 0 0 0 0 0 0 0 0 0 0 0 0 0 0 0 0 0 0 0 0 0 0 0 0 0 0 0 0 0 0 0 0
Wind_Speed
3 5 2 4 4 4 5 4 1 2 2 4 5 7 7 7 7 8 8 7 7 6 5 5 5 5 5 5 6 5 5 5 3 2 2 2 2 2 3 3 4 4 4 4
5 1 4 3 4 4 4 4 1 1 2 4 5 4 4 6 7 8 9 8 8 7 5 5 5 5 5 5 5 5 5 5 4 2 2 2 2 2 2 3 4 5 5 4
3 4 2 4 3 3 2 5 4 4 4 5 6 2 2 3 3 5 6 6 6 7 7 5 4 4 5 5 5 4 5 5 5 4 3 3 2 2 3 4 4 4 5 5
2 3 2 2 2 4 2 3 6 6 5 1 3 2 4 4 4 7 8 7 7 6 6 5 4 4 5 4 4 5 5 6 5 4 4 4 3 2 2 2 2 4 5 5
2 1 1 2 3 5 3 3 5 5 5 3 2 3 4 2 6 9 9 9 8 7 7 6 5 5 4 4 4 5 5 6 5 5 5 4 3 2 1 2 3 4 5 5
3 1 1 2 1 4 5 7 7 6 5 2 1 3 5 5 7 6 8 9 9 8 7 7 6 5 5 5 5 5 6 6 5 5 5 4 4 3 3 3 4 3 3 4
4 3 2 1 3 3 5 7 4 4 4 3 1 2 7 5 5 6 9 10 10 9 8 8 7 5 5 4 4 5 6 5 5 5 5 4 4 3 3 2 2 3 3 3
1 4 3 0 3 4 3 7 8 5 4 3 1 4 5 3 1 4 7 9 10 9 8 7 7 6 5 4 4 4 5 4 4 4 4 3 3 2 2 2 2 2 2 2
3 3 3 1 1 6 5 2 5 7 3 1 3 4 4 2 3 5 8 9 9 8 8 7 7 6 5 4 4 4 4 4 3 3 3 4 4 3 3 3 3 2 2 2
4 1 3 2 3 5 5 7 5 6 5 2 3 3 4 4 5 6 8 9 9 8 8 7 6 6 4 4 4 4 3 3 3 3 3 3 3 3 3 3 4 4 3 3
3 3 3 3 2 0 3 4 5 4 5 6 3 6 4 7 7 8 8 9 10 10 9 7 6 5 5 4 4 3 3 3 4 3 3 3 3 3 4 4 4 3 3 4
2 4 0 2 2 0 3 4 5 5 3 3 4 6 3 2 5 7 8 8 9 9 8 7 7 6 5 4 3 3 3 3 3 3 3 3 3 4 4 4 4 4 3 4
3 5 3 5 5 4 3 2 3 5 5 4 4 5 2 4 5 6 8 8 9 9 9 7 6 6 5 4 3 3 3 2 2 3 3 3 3 3 3 3 3 4 3 4
5 4 5 5 4 1 0 0 2 4 4 3 5 4 1 2 4 5 7 8 9 9 9 8 7 5 5 4 3 3 2 2 2 2 3 3 3 3 3 3 3 3 3 4
5 3 2 1 1 1 1 0 1 2 4 5 4 4 4 5 6 6 7 9 10 9 9 8 7 6 5 4 3 3 2 2 2 2 3 2 2 2 3 3 3 3 3 4
4 3 2 2 2 2 2 3 1 1 1 1 1 1 0 4 5 6 7 9 9 9 9 8 8 7 6 5 4 3 3 2 2 2 2 2 2 3 3 3 3 3 4 4
3 3 3 1 3 2 2 3 1 1 1 2 2 2 3 4 6 7 8 8 8 8 8 8 7 6 6 5 5 4 3 2 3 2 2 2 2 3 3 3 4 4 3 4
4 4 3 1 3 0 3 1 1 2 1 1 1 2 4 4 4 4 5 8 8 8 8 7 7 6 5 4 4 4 3 3 3 2 2 2 2 2 2 3 3 3 3 3
3 5 4 3 1 2 2 1 0 1 1 2 2 4 4 6 5 2 3 6 7 7 7 7 6 6 6 6 5 5 4 3 3 2 2 2 2 2 3 3 3 2 2 3
5 4 5 3 2 2 3 3 1 2 1 1 3 5 5 5 3 2 4 6 7 7 7 7 7 6 6 5 5 5 4 3 2 1 1 2 2 2 2 2 2 2 2 2
3 4 3 3 1 4 3 3 1 2 4 1 3 5 5 3 3 4 7 7 8 8 8 8 8 6 5 5 5 5 3 2 1 2 2 2 2 2 2 2 2 2 2 3
2 2 2 3 1 4 3 2 1 3 1 2 3 4 6 5 6 7 8 9 9 8 8 7 7 5 4 5 5 4 3 2 2 3 3 2 2 2 2 2 2 3 3 3
2 4 4 4 4 4 2 1 1 2 2 2 4 5 7 7 7 7 7 8 8 8 7 6 7 6 4 4 4 4 2 3 3 3 3 2 2 3 2 2 2 2 2 2
1 2 3 0 2 1 2 1 1 1 2 3 5 7 7 8 8 8 8 7 7 7 7 6 7 6 4 3 3 3 3 3 4 3 2 1 2 2 2 2 1 1 1 1
1 2 2 0 2 2 3 2 2 3 5 6 6 5 7 9 8 8 8 8 7 6 5 6 6 6 5 4 3 3 3 4 3 2 2 1 1 1 2 2 1 0 1 2
2 4 4 4 4 3 2 1 2 4 4 5 6 6 5 6 8 7 7 6 7 7 6 6 6 5 5 4 3 3 3 4 4 2 1 1 1 1 1 1 2 2 2 3
Wind_Direction
60 75 150 202 180 153 142 133 150 250 169 119 135 147 166 165 162 163 159 154 150 137 117 92 79 73 73 66 62 55 53 44 47 51 62 63 48 30 34 36 30 24 20 22
46 329 227 179 155 138 136 126 143 25 95 115 117 125 159 173 183 176 169 167 159 143 126 103 83 63 63 63 61 62 56 51 48 51 59 76 71 49 47 33 30 21 16 18
166 235 194 150 143 137 164 169 179 152 81 74 101 69 184 192 180 166 166 161 155 153 145 131 107 84 73 65 59 65 57 55 50 53 67 67 52 31 25 18 15 7 10 17
234 261 164 141 172 147 232 204 159 140 118 135 143 176 240 206 201 190 177 166 162 156 146 138 120 98 80 71 67 65 62 58 51 52 63 69 70 49 13 2 360 359 14 18
283 250 136 163 213 161 181 101 108 109 115 92 48 133 269 189 217 210 188 174 165 160 151 142 129 108 86 72 68 67 68 60 53 56 61 68 67 49 19 17 17 10 9 16
254 268 180 199 113 133 124 78 60 51 70 76 233 152 254 216 215 199 180 171 162 156 147 136 123 108 91 76 67 66 68 57 49 55 60 68 72 63 43 25 19 7 1 5
355 345 328 123 85 47 93 93 52 14 21 250 269 175 245 244 225 196 176 168 159 154 149 143 135 120 102 85 72 68 69 57 47 53 56 61 68 67 55 31 19 11 5 359
67 316 305 300 166 161 154 136 153 179 203 258 325 231 255 297 240 152 148 148 147 147 145 145 141 130 118 103 85 76 74 66 52 56 55 51 56 59 49 39 36 19 356 343
163 261 307 340 80 131 129 134 153 127 132 123 275 275 297 73 98 122 132 139 145 145 142 140 136 127 125 116 99 91 85 71 53 56 58 48 42 46 45 37 37 23 4 358
152 191 308 303 63 42 118 140 102 113 139 210 279 262 238 208 188 162 155 155 147 144 141 140 136 131 128 120 107 97 91 86 75 69 63 58 42 41 41 39 29 21 11 12
123 141 319 20 60 156 85 86 98 104 142 155 218 264 230 204 191 177 171 161 155 153 150 146 137 130 125 115 109 104 92 73 63 60 59 53 41 38 41 36 22 18 17 15
108 115 289 284 289 182 129 143 142 143 183 162 168 260 323 200 169 159 158 152 148 143 138 133 129 125 123 119 112 102 91 78 62 56 56 50 42 38 37 29 17 17 18 15
110 103 67 350 349 9 62 93 121 120 117 146 166 256 13 83 111 135 145 145 141 136 133 131 131 133 131 126 116 101 88 80 65 65 64 51 42 39 33 23 14 15 16 17
104 103 151 187 222 214 44 23 141 125 138 181 209 223 242 135 141 143 143 143 140 140 142 143 142 140 136 132 129 119 97 87 80 75 69 55 38 35 31 26 20 14 17 21
86 108 138 210 257 141 144 266 152 159 175 179 211 202 222 186 171 159 147 142 143 149 152 154 152 149 146 139 131 122 106 88 85 78 63 46 36 37 34 29 25 22 25 24
63 107 82 34 30 90 64 17 35 104 120 152 132 240 128 122 123 138 147 152 156 161 161 158 157 156 155 151 144 132 117 99 92 81 60 44 45 41 33 29 31 30 26 23
60 99 85 327 321 47 10 338 0 39 35 154 185 214 145 142 160 167 166 162 160 160 158 158 159 157 155 150 143 140 134 112 94 82 61 47 50 49 37 38 40 31 22 26
118 97 104 64 40 75 259 311 66 90 31 35 125 145 157 153 142 141 152 156 153 155 153 152 148 146 141 131 129 126 113 103 92 75 59 49 52 49 46 44 34 24 23 26
122 125 107 100 81 301 311 336 70 122 348 15 116 119 107 112 86 74 129 148 151 152 146 142 140 138 132 130 129 120 107 95 83 68 50 43 58 62 51 40 27 19 27 26
56 81 102 106 119 241 266 307 296 114 312 322 137 145 144 131 133 207 143 128 124 123 124 128 126 122 126 132 130 122 118 109 101 82 61 50 62 69 59 37 21 21 30 26
38 44 85 117 168 272 287 309 48 123 252 214 156 155 154 159 169 142 129 123 123 123 125 127 126 128 136 136 127 121 120 123 129 100 77 60 57 66 69 40 26 40 42 39
145 123 134 125 151 263 320 30 136 216 217 143 146 146 138 122 111 118 124 125 126 126 129 130 129 127 129 132 128 127 134 131 107 96 81 59 48 53 63 57 41 42 47 45
168 180 174 176 206 246 303 282 266 160 146 151 141 137 132 123 125 126 128 130 132 134 133 131 130 125 122 131 135 138 150 128 110 97 82 61 52 50 52 61 50 37 37 45
335 122 117 101 294 318 355 14 36 94 126 126 130 134 135 131 134 135 136 136 135 136 138 133 131 133 137 141 141 152 148 132 117 106 87 64 53 40 35 37 47 54 23 24
242 125 108 270 289 12 5 21 79 82 93 105 109 123 134 131 135 142 145 147 147 143 142 141 144 148 151 146 146 152 146 136 125 115 96 73 62 51 30 23 7 318 258 227
210 172 165 212 217 173 226 233 121 115 121 130 123 118 122 135 139 140 146 149 148 146 143 142 145 148 151 150 155 158 152 145 138 128 112 87 60 39 36 23 360 337 280 297